| time (UTC) | temp F | wind direction | speed MPH | gust MPH | rain 1hr in | rain 24hr in | rain mn in | humidity % | barometer mb |
| 20260901114546 | 71 | 215 | 0.0 | 1.0 | 0.00 | 0.01 | 0.01 | 99 | 1017.9 |
| 20260901114045 | 71 | 226 | 1.0 | 2.0 | 0.00 | 0.01 | 0.01 | 99 | 1017.8 |
| 20260901113543 | 71 | 198 | 0.0 | 0.0 | 0.00 | 0.01 | 0.01 | 99 | 1018.1 |
| 20260901113040 | 70 | 197 | 0.0 | 0.0 | 0.00 | 0.01 | 0.01 | 99 | 1018.0 |
| 20260901112539 | 70 | 205 | 0.0 | 0.0 | 0.00 | 0.01 | 0.01 | 99 | 1018.1 |
| 20260901112034 | 70 | 205 | 0.0 | 0.0 | 0.00 | 0.01 | 0.01 | 99 | 1018.1 |
| 20260901111533 | 70 | 205 | 0.0 | 0.0 | 0.00 | 0.01 | 0.01 | 99 | 1018.0 |
| 20260901111031 | 71 | 218 | 0.0 | 0.0 | 0.00 | 0.01 | 0.01 | 99 | 1018.1 |
| 20260901110527 | 71 | 230 | 0.0 | 0.0 | 0.00 | 0.01 | 0.01 | 99 | 1018.0 |
| 20260901110023 | 70 | 214 | 0.0 | 0.0 | 0.00 | 0.01 | 0.01 | 99 | 1018.1 |
| 20260901105520 | 70 | 214 | 0.0 | 0.0 | 0.00 | 0.01 | 0.01 | 99 | 1018.0 |
| 20260901105018 | 71 | 212 | 0.0 | 0.0 | 0.00 | 0.01 | 0.01 | 99 | 1018.1 |
| 20260901104515 | 70 | 214 | 0.0 | 0.0 | 0.00 | 0.01 | 0.01 | 99 | 1017.9 |
| 20260901104010 | 70 | 211 | 0.0 | 0.0 | 0.00 | 0.01 | 0.01 | 99 | 1017.9 |
| 20260901103504 | 70 | 210 | 0.0 | 0.0 | 0.00 | 0.01 | 0.01 | 99 | 1018.1 |
| 20260901103000 | 70 | 214 | 0.0 | 0.0 | 0.00 | 0.01 | 0.01 | 99 | 1018.1 |
| 20260901102454 | 70 | 218 | 0.0 | 0.0 | 0.00 | 0.01 | 0.01 | 99 | 1018.1 |
| 20260901101948 | 70 | 210 | 0.0 | 0.0 | 0.00 | 0.01 | 0.01 | 99 | 1018.1 |
| 20260901101444 | 70 | 210 | 0.0 | 0.0 | 0.00 | 0.01 | 0.01 | 99 | 1018.1 |
| 20260901100943 | 70 | 207 | 0.0 | 0.0 | 0.00 | 0.01 | 0.01 | 99 | 1018.1 |
| 20260901100438 | 70 | 207 | 0.0 | 0.0 | 0.00 | 0.01 | 0.01 | 99 | 1018.3 |
| 20260901095938 | 70 | 205 | 0.0 | 0.0 | 0.00 | 0.01 | 0.01 | 99 | 1018.1 |
| 20260901095437 | 70 | 201 | 0.0 | 0.0 | 0.00 | 0.01 | 0.01 | 99 | 1018.1 |
| 20260901094929 | 70 | 201 | 0.0 | 0.0 | 0.00 | 0.01 | 0.01 | 99 | 1018.0 |
| 20260901094430 | 70 | 201 | 0.0 | 0.0 | 0.00 | 0.01 | 0.01 | 99 | 1018.3 |
| 20260901093929 | 70 | 201 | 0.0 | 0.0 | 0.00 | 0.01 | 0.01 | 99 | 1018.2 |
| 20260901093424 | 70 | 201 | 0.0 | 0.0 | 0.00 | 0.01 | 0.01 | 99 | 1018.2 |
| 20260901092919 | 70 | 201 | 0.0 | 0.0 | 0.00 | 0.01 | 0.01 | 99 | 1018.3 |
| 20260901092415 | 70 | 201 | 0.0 | 0.0 | 0.00 | 0.01 | 0.01 | 99 | 1018.1 |
| 20260901091910 | 70 | 201 | 0.0 | 0.0 | 0.00 | 0.01 | 0.01 | 99 | 1018.1 |
| 20260901091409 | 70 | 201 | 0.0 | 0.0 | 0.00 | 0.01 | 0.01 | 99 | 1018.3 |
| 20260901090900 | 70 | 201 | 0.0 | 0.0 | 0.00 | 0.01 | 0.01 | 99 | 1018.1 |
| 20260901090359 | 70 | 201 | 0.0 | 0.0 | 0.00 | 0.01 | 0.01 | 99 | 1018.0 |
| 20260901085856 | 70 | 201 | 0.0 | 0.0 | 0.00 | 0.01 | 0.01 | 99 | 1018.0 |
| 20260901085351 | 71 | 201 | 0.0 | 0.0 | 0.00 | 0.01 | 0.01 | 99 | 1018.1 |
| 20260901084848 | 70 | 201 | 0.0 | 0.0 | 0.00 | 0.01 | 0.01 | 99 | 1018.2 |
| 20260901084343 | 70 | 201 | 0.0 | 0.0 | 0.00 | 0.01 | 0.01 | 99 | 1018.2 |
| 20260901083833 | 70 | 201 | 0.0 | 0.0 | 0.00 | 0.01 | 0.01 | 99 | 1018.3 |
| 20260901083332 | 70 | 201 | 0.0 | 0.0 | 0.00 | 0.01 | 0.01 | 99 | 1018.3 |
| 20260901082831 | 70 | 199 | 0.0 | 0.0 | 0.00 | 0.01 | 0.01 | 99 | 1018.3 |
| 20260901082326 | 70 | 199 | 0.0 | 0.0 | 0.00 | 0.01 | 0.01 | 99 | 1018.4 |
| 20260901081821 | 70 | 200 | 0.0 | 0.0 | 0.00 | 0.01 | 0.01 | 99 | 1018.3 |
| 20260901081316 | 70 | 196 | 0.0 | 0.0 | 0.00 | 0.01 | 0.01 | 99 | 1018.1 |
| 20260901080811 | 70 | 197 | 0.0 | 0.0 | 0.00 | 0.01 | 0.01 | 99 | 1018.6 |
| 20260901080311 | 70 | 185 | 0.0 | 0.0 | 0.00 | 0.01 | 0.01 | 99 | 1018.4 |
| 20260901075804 | 70 | 174 | 0.0 | 0.0 | 0.00 | 0.01 | 0.01 | 99 | 1018.4 |
| 20260901075300 | 70 | 174 | 0.0 | 0.0 | 0.00 | 0.01 | 0.01 | 99 | 1018.3 |
| 20260901074754 | 70 | 176 | 0.0 | 0.0 | 0.00 | 0.01 | 0.01 | 99 | 1018.3 |
| 20260901074249 | 70 | 176 | 0.0 | 0.0 | 0.00 | 0.01 | 0.01 | 99 | 1018.6 |
| 20260901073745 | 70 | 176 | 0.0 | 0.0 | 0.00 | 0.01 | 0.01 | 99 | 1018.4 |
| 20260901073240 | 70 | 176 | 0.0 | 0.0 | 0.00 | 0.01 | 0.01 | 99 | 1018.2 |
| 20260901072735 | 70 | 176 | 0.0 | 0.0 | 0.00 | 0.01 | 0.01 | 99 | 1018.3 |
| 20260901072231 | 70 | 176 | 0.0 | 0.0 | 0.00 | 0.01 | 0.01 | 99 | 1018.2 |
| 20260901071730 | 70 | 176 | 0.0 | 0.0 | 0.00 | 0.01 | 0.01 | 99 | 1018.2 |
| 20260901071225 | 70 | 176 | 0.0 | 0.0 | 0.00 | 0.01 | 0.01 | 99 | 1018.3 |
| 20260901070724 | 70 | 176 | 0.0 | 0.0 | 0.00 | 0.01 | 0.01 | 99 | 1018.4 |
| 20260901070219 | 70 | 176 | 0.0 | 0.0 | 0.00 | 0.01 | 0.01 | 99 | 1018.5 |
| 20260901065719 | 70 | 176 | 0.0 | 0.0 | 0.00 | 0.01 | 0.01 | 99 | 1018.6 |
| 20260901065214 | 70 | 184 | 0.0 | 0.0 | 0.00 | 0.01 | 0.01 | 99 | 1018.6 |
| 20260901064710 | 70 | 184 | 0.0 | 0.0 | 0.00 | 0.01 | 0.01 | 99 | 1018.6 |
| 20260901064206 | 70 | 184 | 0.0 | 0.0 | 0.00 | 0.01 | 0.01 | 99 | 1018.6 |
| 20260901063703 | 70 | 196 | 0.0 | 0.0 | 0.00 | 0.01 | 0.01 | 99 | 1018.6 |
| 20260901063159 | 70 | 196 | 0.0 | 0.0 | 0.00 | 0.01 | 0.01 | 99 | 1018.5 |
| 20260901062654 | 70 | 196 | 0.0 | 0.0 | 0.00 | 0.01 | 0.01 | 99 | 1018.6 |
| 20260901062150 | 70 | 196 | 0.0 | 0.0 | 0.00 | 0.01 | 0.01 | 99 | 1018.8 |
| 20260901061646 | 70 | 196 | 0.0 | 0.0 | 0.00 | 0.01 | 0.01 | 99 | 1018.7 |
| 20260901061145 | 70 | 196 | 0.0 | 0.0 | 0.00 | 0.01 | 0.01 | 99 | 1018.8 |
| 20260901060640 | 70 | 196 | 0.0 | 0.0 | 0.00 | 0.01 | 0.01 | 99 | 1018.8 |
| 20260901060136 | 70 | 198 | 0.0 | 0.0 | 0.00 | 0.01 | 0.01 | 99 | 1018.9 |
| 20260901055631 | 70 | 208 | 0.0 | 0.0 | 0.00 | 0.01 | 0.01 | 99 | 1018.9 |
| 20260901055128 | 70 | 221 | 0.0 | 0.0 | 0.00 | 0.01 | 0.01 | 99 | 1019.2 |
| 20260901054625 | 70 | 262 | 0.0 | 0.0 | 0.00 | 0.01 | 0.01 | 99 | 1019.1 |
| 20260901054120 | 70 | 199 | 0.0 | 0.0 | 0.00 | 0.01 | 0.01 | 99 | 1019.0 |
| 20260901053616 | 70 | 199 | 0.0 | 0.0 | 0.00 | 0.01 | 0.01 | 99 | 1019.0 |
| 20260901053112 | 70 | 199 | 0.0 | 0.0 | 0.00 | 0.01 | 0.01 | 99 | 1019.1 |
| 20260901052612 | 70 | 206 | 0.0 | 0.0 | 0.00 | 0.01 | 0.01 | 99 | 1019.2 |
| 20260901052108 | 71 | 246 | 0.0 | 0.0 | 0.00 | 0.01 | 0.01 | 99 | 1019.2 |
| 20260901051607 | 71 | 234 | 2.0 | 2.0 | 0.00 | 0.01 | 0.01 | 99 | 1019.1 |
| 20260901051106 | 71 | 262 | 1.0 | 1.0 | 0.00 | 0.01 | 0.01 | 99 | 1019.2 |
| 20260901050601 | 71 | 201 | 2.0 | 2.0 | 0.00 | 0.01 | 0.01 | 99 | 1019.1 |
| 20260901050056 | 71 | 211 | 2.0 | 3.0 | 0.00 | 0.01 | 0.01 | 99 | 1019.2 |
| 20260901045551 | 71 | 227 | 1.0 | 1.0 | 0.00 | 0.01 | 0.01 | 99 | 1019.2 |
| 20260901045046 | 71 | 242 | 1.0 | 1.0 | 0.00 | 0.01 | 0.01 | 99 | 1019.3 |
| 20260901044542 | 70 | 212 | 2.0 | 2.0 | 0.00 | 0.01 | 0.01 | 99 | 1019.3 |
| 20260901044038 | 70 | 225 | 3.0 | 3.0 | 0.00 | 0.01 | 0.01 | 99 | 1019.5 |
| 20260901043533 | 70 | 202 | 0.0 | 1.0 | 0.00 | 0.01 | 0.01 | 99 | 1019.2 |
| 20260901043029 | 70 | 219 | 0.0 | 0.0 | 0.00 | 0.01 | 0.01 | 99 | 1019.6 |
| 20260901042528 | 70 | 222 | 0.0 | 0.0 | 0.00 | 0.01 | 0.01 | 99 | 1019.5 |
| 20260901042024 | 70 | 165 | 0.0 | 0.0 | 0.00 | 0.01 | 0.01 | 99 | 1019.6 |
| 20260901041519 | 70 | 144 | 1.0 | 1.0 | 0.07 | 0.01 | 0.01 | 99 | 1019.7 |
| 20260901041014 | 70 | 179 | 0.0 | 0.0 | 0.07 | 0.01 | 0.01 | 99 | 1019.6 |
| 20260901040508 | 70 | 132 | 1.0 | 1.0 | 0.05 | 0.00 | 0.00 | 99 | 1019.6 |
| 20260901040007 | 70 | 156 | 0.0 | 0.0 | 0.05 | 0.04 | 0.04 | 99 | 1019.8 |
| 20260901035506 | 70 | 177 | 0.0 | 0.0 | 0.00 | 0.03 | 0.03 | 99 | 1020.0 |
| 20260901035004 | 70 | 287 | 0.0 | 1.0 | 0.00 | 0.03 | 0.03 | 99 | 1020.0 |
| 20260901034504 | 70 | 234 | 0.0 | 1.0 | 0.00 | 0.03 | 0.03 | 99 | 1020.1 |
| 20260901033959 | 70 | 225 | 0.0 | 0.0 | 0.00 | 0.03 | 0.03 | 99 | 1020.0 |
| 20260901033458 | 70 | 225 | 0.0 | 0.0 | 0.00 | 0.03 | 0.03 | 99 | 1020.0 |
| 20260901032957 | 70 | 266 | 1.0 | 1.0 | 0.00 | 0.03 | 0.03 | 99 | 1020.2 |
| 20260901032451 | 70 | 209 | 0.0 | 0.0 | 0.00 | 0.03 | 0.03 | 99 | 1019.9 |
| 20260901031946 | 70 | 178 | 0.0 | 0.0 | 0.00 | 0.03 | 0.03 | 99 | 1020.1 |
| 20260901031442 | 70 | 225 | 0.0 | 0.0 | 0.00 | 0.03 | 0.03 | 99 | 1020.0 |
| 20260901030942 | 70 | 261 | 1.0 | 1.0 | 0.00 | 0.03 | 0.03 | 99 | 1020.1 |
| 20260901030438 | 70 | 272 | 0.0 | 0.0 | 0.00 | 0.03 | 0.03 | 99 | 1020.0 |
| 20260901025936 | 70 | 252 | 0.0 | 1.0 | 0.00 | 0.03 | 0.03 | 99 | 1020.2 |
| 20260901025432 | 71 | 196 | 0.0 | 0.0 | 0.00 | 0.03 | 0.03 | 99 | 1020.0 |
| 20260901024931 | 71 | 196 | 0.0 | 0.0 | 0.00 | 0.03 | 0.03 | 99 | 1020.3 |
| 20260901024426 | 70 | 196 | 0.0 | 0.0 | 0.00 | 0.03 | 0.03 | 99 | 1020.1 |
| 20260901023924 | 70 | 161 | 0.0 | 0.0 | 0.00 | 0.03 | 0.03 | 99 | 1019.9 |
| 20260901023419 | 70 | 161 | 0.0 | 0.0 | 0.00 | 0.03 | 0.03 | 99 | 1020.1 |
| 20260901022914 | 70 | 161 | 0.0 | 0.0 | 0.00 | 0.03 | 0.03 | 99 | 1020.3 |
| 20260901022410 | 70 | 161 | 0.0 | 0.0 | 0.00 | 0.03 | 0.03 | 99 | 1020.2 |
| 20260901021905 | 70 | 161 | 0.0 | 0.0 | 0.00 | 0.03 | 0.03 | 99 | 1020.1 |
| 20260901021401 | 70 | 161 | 0.0 | 0.0 | 0.00 | 0.03 | 0.03 | 99 | 1020.3 |
| 20260901020855 | 70 | 161 | 0.0 | 0.0 | 0.00 | 0.03 | 0.03 | 99 | 1020.2 |
| 20260901020351 | 70 | 161 | 0.0 | 0.0 | 0.00 | 0.03 | 0.03 | 99 | 1020.0 |
| 20260901015850 | 70 | 161 | 0.0 | 0.0 | 0.00 | 0.03 | 0.03 | 99 | 1020.1 |
| 20260901015347 | 70 | 164 | 0.0 | 0.0 | 0.00 | 0.03 | 0.03 | 99 | 1020.3 |
| 20260901014845 | 70 | 170 | 0.0 | 0.0 | 0.00 | 0.03 | 0.03 | 99 | 1020.1 |
| 20260901014342 | 70 | 170 | 0.0 | 0.0 | 0.00 | 0.03 | 0.03 | 99 | 1020.1 |
| 20260901013837 | 70 | 187 | 0.0 | 0.0 | 0.00 | 0.03 | 0.03 | 99 | 1020.1 |
| 20260901013333 | 70 | 188 | 0.0 | 0.0 | 0.00 | 0.03 | 0.03 | 99 | 1020.0 |
| 20260901012828 | 70 | 122 | 0.0 | 0.0 | 0.00 | 0.03 | 0.03 | 99 | 1019.9 |
| 20260901012323 | 70 | 151 | 0.0 | 0.0 | 0.00 | 0.03 | 0.03 | 99 | 1019.9 |
| 20260901011819 | 70 | 151 | 0.0 | 0.0 | 0.00 | 0.03 | 0.03 | 99 | 1020.1 |
| 20260901011314 | 70 | 150 | 0.0 | 0.0 | 0.00 | 0.03 | 0.03 | 99 | 1020.3 |
| 20260901010807 | 70 | 150 | 0.0 | 0.0 | 0.00 | 0.03 | 0.03 | 99 | 1020.1 |
| 20260901010302 | 70 | 150 | 0.0 | 0.0 | 0.00 | 0.03 | 0.03 | 99 | 1020.1 |
| 20260901005801 | 70 | 150 | 0.0 | 0.0 | 0.00 | 0.03 | 0.03 | 99 | 1020.2 |
| 20260901005257 | 70 | 150 | 0.0 | 0.0 | 0.00 | 0.03 | 0.03 | 99 | 1020.0 |
| 20260901004756 | 70 | 150 | 0.0 | 0.0 | 0.00 | 0.03 | 0.03 | 99 | 1020.2 |
| 20260901004251 | 70 | 150 | 0.0 | 0.0 | 0.00 | 0.03 | 0.03 | 99 | 1020.0 |
| 20260901003750 | 70 | 150 | 0.0 | 0.0 | 0.00 | 0.03 | 0.03 | 99 | 1020.0 |
| 20260901003245 | 70 | 150 | 0.0 | 0.0 | 0.00 | 0.03 | 0.03 | 99 | 1020.1 |
| 20260901002744 | 70 | 150 | 0.0 | 0.0 | 0.00 | 0.03 | 0.03 | 99 | 1020.0 |
| 20260901002240 | 71 | 150 | 0.0 | 0.0 | 0.00 | 0.03 | 0.03 | 99 | 1020.1 |
| 20260901001735 | 71 | 149 | 0.0 | 0.0 | 0.00 | 0.03 | 0.03 | 99 | 1019.8 |
| 20260901001230 | 71 | 149 | 0.0 | 0.0 | 0.00 | 0.03 | 0.03 | 99 | 1020.0 |
| 20260901000725 | 71 | 149 | 0.0 | 0.0 | 0.00 | 0.03 | 0.03 | 99 | 1020.0 |
| 20260901000220 | 71 | 149 | 0.0 | 0.0 | 0.00 | 0.03 | 0.03 | 99 | 1020.1 |
| 20260831235714 | 71 | 149 | 0.0 | 0.0 | 0.00 | 0.03 | 0.03 | 99 | 1019.9 |
| 20260831235209 | 71 | 149 | 0.0 | 0.0 | 0.00 | 0.03 | 0.03 | 99 | 1020.0 |
| 20260831234709 | 72 | 149 | 0.0 | 0.0 | 0.00 | 0.03 | 0.03 | 99 | 1019.8 |
| 20260831234204 | 72 | 149 | 0.0 | 0.0 | 0.00 | 0.03 | 0.03 | 98 | 1019.7 |
| 20260831233659 | 72 | 148 | 0.0 | 1.0 | 0.00 | 0.03 | 0.03 | 98 | 1019.6 |
| 20260831233154 | 73 | 148 | 0.0 | 0.0 | 0.00 | 0.03 | 0.03 | 98 | 1019.6 |
| 20260831232649 | 73 | 148 | 0.0 | 0.0 | 0.00 | 0.03 | 0.03 | 97 | 1019.7 |
| 20260831232145 | 73 | 143 | 0.0 | 0.0 | 0.00 | 0.03 | 0.03 | 96 | 1019.8 |
| 20260831231641 | 74 | 143 | 0.0 | 0.0 | 0.00 | 0.03 | 0.03 | 96 | 1019.8 |
| 20260831231137 | 74 | 143 | 0.0 | 0.0 | 0.00 | 0.03 | 0.03 | 95 | 1019.7 |
| 20260831230632 | 74 | 143 | 0.0 | 0.0 | 0.00 | 0.03 | 0.03 | 94 | 1019.9 |
| 20260831230128 | 74 | 143 | 0.0 | 0.0 | 0.00 | 0.03 | 0.03 | 94 | 1020.0 |
| 20260831225627 | 74 | 143 | 0.0 | 0.0 | 0.00 | 0.03 | 0.03 | 93 | 1020.1 |
| 20260831225123 | 75 | 141 | 0.0 | 0.0 | 0.00 | 0.03 | 0.03 | 93 | 1020.1 |
| 20260831224618 | 75 | 141 | 0.0 | 0.0 | 0.00 | 0.03 | 0.03 | 93 | 1020.2 |
| 20260831224113 | 75 | 140 | 0.0 | 0.0 | 0.00 | 0.03 | 0.03 | 93 | 1020.2 |
| 20260831223608 | 75 | 117 | 1.0 | 1.0 | 0.00 | 0.03 | 0.03 | 92 | 1020.1 |
| 20260831223104 | 75 | 136 | 1.0 | 1.0 | 0.00 | 0.03 | 0.03 | 91 | 1020.2 |
| 20260831222600 | 76 | 132 | 1.0 | 1.0 | 0.00 | 0.03 | 0.03 | 90 | 1020.4 |
| 20260831222054 | 76 | 184 | 0.0 | 1.0 | 0.00 | 0.03 | 0.03 | 91 | 1020.4 |
| 20260831221550 | 76 | 202 | 1.0 | 1.0 | 0.00 | 0.03 | 0.03 | 90 | 1020.2 |
| 20260831221050 | 76 | 240 | 0.0 | 0.0 | 0.00 | 0.03 | 0.03 | 90 | 1020.6 |
| 20260831220545 | 76 | 168 | 0.0 | 0.0 | 0.00 | 0.03 | 0.03 | 89 | 1020.2 |
| 20260831220041 | 76 | 173 | 1.0 | 1.0 | 0.00 | 0.03 | 0.03 | 87 | 1020.4 |
| 20260831215536 | 76 | 236 | 0.0 | 0.0 | 0.00 | 0.03 | 0.03 | 89 | 1020.4 |
| 20260831215032 | 75 | 163 | 0.0 | 1.0 | 0.00 | 0.03 | 0.03 | 90 | 1020.6 |
| 20260831214529 | 75 | 174 | 0.0 | 0.0 | 0.00 | 0.03 | 0.03 | 89 | 1020.5 |
| 20260831214025 | 76 | 176 | 0.0 | 0.0 | 0.00 | 0.03 | 0.03 | 88 | 1020.5 |
| 20260831213521 | 75 | 232 | 0.0 | 0.0 | 0.00 | 0.03 | 0.03 | 89 | 1020.5 |
| 20260831213016 | 76 | 174 | 0.0 | 0.0 | 0.00 | 0.03 | 0.03 | 90 | 1020.7 |
| 20260831212512 | 75 | 174 | 0.0 | 0.0 | 0.00 | 0.03 | 0.03 | 91 | 1020.5 |
| 20260831212007 | 75 | 252 | 0.0 | 0.0 | 0.00 | 0.03 | 0.03 | 89 | 1020.8 |
| 20260831211502 | 75 | 179 | 0.0 | 1.0 | 0.00 | 0.03 | 0.03 | 89 | 1020.8 |
| 20260831211001 | 75 | 267 | 1.0 | 1.0 | 0.00 | 0.03 | 0.03 | 88 | 1020.9 |
| 20260831210456 | 76 | 222 | 0.0 | 0.0 | 0.00 | 0.03 | 0.03 | 88 | 1020.9 |
| 20260831205952 | 76 | 207 | 0.0 | 0.0 | 0.00 | 0.03 | 0.03 | 88 | 1020.9 |
| 20260831205447 | 74 | 248 | 0.0 | 0.0 | 0.00 | 0.03 | 0.03 | 89 | 1020.9 |
| 20260831204943 | 74 | 208 | 0.0 | 0.0 | 0.00 | 0.03 | 0.03 | 93 | 1021.0 |
| 20260831204442 | 74 | 142 | 0.0 | 0.0 | 0.00 | 0.03 | 0.03 | 95 | 1021.2 |
| 20260831203936 | 74 | 137 | 0.0 | 0.0 | 0.00 | 0.03 | 0.03 | 96 | 1020.9 |
| 20260831203430 | 74 | 140 | 1.0 | 1.0 | 0.00 | 0.03 | 0.03 | 96 | 1020.8 |
| 20260831202928 | 74 | 180 | 0.0 | 0.0 | 0.00 | 0.03 | 0.03 | 96 | 1021.1 |
| 20260831202424 | 74 | 166 | 0.0 | 0.0 | 0.00 | 0.03 | 0.03 | 96 | 1021.2 |
| 20260831201918 | 74 | 172 | 0.0 | 0.0 | 0.00 | 0.03 | 0.03 | 96 | 1021.2 |
| 20260831201416 | 74 | 142 | 0.0 | 0.0 | 0.00 | 0.03 | 0.03 | 96 | 1021.2 |
| 20260831200912 | 74 | 142 | 0.0 | 0.0 | 0.07 | 0.03 | 0.03 | 96 | 1021.2 |
| 20260831200407 | 75 | 143 | 0.0 | 0.0 | 0.07 | 0.03 | 0.03 | 96 | 1021.4 |
| 20260831195902 | 75 | 142 | 0.0 | 0.0 | 0.00 | 0.02 | 0.02 | 95 | 1021.3 |
| 20260831195357 | 74 | 140 | 0.0 | 0.0 | 0.00 | 0.02 | 0.02 | 95 | 1021.3 |
| 20260831194853 | 73 | 140 | 0.0 | 0.0 | 0.00 | 0.02 | 0.02 | 94 | 1021.4 |
| 20260831194348 | 74 | 141 | 0.0 | 0.0 | 0.00 | 0.02 | 0.02 | 96 | 1021.4 |
| 20260831193847 | 75 | 140 | 0.0 | 0.0 | 0.05 | 0.02 | 0.02 | 95 | 1021.5 |
| 20260831193342 | 74 | 135 | 0.0 | 0.0 | 0.00 | 0.01 | 0.01 | 94 | 1021.5 |
| 20260831192838 | 75 | 133 | 0.0 | 0.0 | 0.00 | 0.01 | 0.01 | 93 | 1021.3 |
| 20260831192337 | 75 | 116 | 1.0 | 1.0 | 0.00 | 0.01 | 0.01 | 92 | 1021.6 |
| 20260831191828 | 76 | 138 | 0.0 | 0.0 | 0.00 | 0.01 | 0.01 | 91 | 1021.7 |
| 20260831191324 | 76 | 154 | 0.0 | 0.0 | 0.07 | 0.01 | 0.01 | 89 | 1021.7 |
| 20260831190819 | 76 | 170 | 0.0 | 0.0 | 0.07 | 0.01 | 0.01 | 87 | 1021.9 |
| 20260831190314 | 76 | 220 | 0.0 | 0.0 | 0.00 | 0.00 | 0.00 | 85 | 1022.1 |
| 20260831185813 | 76 | 270 | 1.0 | 1.0 | 0.00 | 0.00 | 0.00 | 84 | 1021.9 |
| 20260831185309 | 76 | 170 | 0.0 | 0.0 | 0.00 | 0.00 | 0.00 | 84 | 1021.8 |
| 20260831184808 | 77 | 164 | 0.0 | 0.0 | 0.00 | 0.00 | 0.00 | 84 | 1021.9 |
| 20260831184304 | 77 | 212 | 0.0 | 1.0 | 0.00 | 0.00 | 0.00 | 84 | 1021.9 |
| 20260831183759 | 76 | 155 | 0.0 | 0.0 | 0.00 | 0.00 | 0.00 | 84 | 1021.7 |
| 20260831183258 | 76 | 154 | 0.0 | 0.0 | 0.00 | 0.00 | 0.00 | 85 | 1022.0 |
| 20260831182757 | 76 | 158 | 0.0 | 0.0 | 0.00 | 0.00 | 0.00 | 86 | 1021.8 |
| 20260831182252 | 76 | 137 | 0.0 | 0.0 | 0.00 | 0.00 | 0.00 | 87 | 1021.9 |
| 20260831181748 | 76 | 75 | 1.0 | 2.0 | 0.00 | 0.00 | 0.00 | 85 | 1021.9 |
| 20260831181243 | 76 | 122 | 0.0 | 1.0 | 0.00 | 0.00 | 0.00 | 87 | 1021.8 |
| 20260831180743 | 76 | 106 | 1.0 | 1.0 | 0.00 | 0.00 | 0.00 | 84 | 1021.8 |
| 20260831180238 | 77 | 107 | 2.0 | 2.0 | 0.00 | 0.00 | 0.00 | 84 | 1022.1 |
| 20260831175737 | 77 | 221 | 0.0 | 0.0 | 0.00 | 0.00 | 0.00 | 84 | 1022.0 |
| 20260831175234 | 76 | 263 | 1.0 | 2.0 | 0.00 | 0.00 | 0.00 | 83 | 1021.9 |
| 20260831174729 | 76 | 136 | 0.0 | 0.0 | 0.00 | 0.00 | 0.00 | 83 | 1022.0 |
| 20260831174225 | 77 | 130 | 0.0 | 0.0 | 0.00 | 0.00 | 0.00 | 81 | 1021.9 |
| 20260831173723 | 78 | 262 | 0.0 | 0.0 | 0.00 | 0.00 | 0.00 | 79 | 1022.1 |
| 20260831173218 | 78 | 210 | 0.0 | 0.0 | 0.00 | 0.00 | 0.00 | 79 | 1022.0 |
| 20260831172718 | 78 | 210 | 1.0 | 1.0 | 0.00 | 0.00 | 0.00 | 78 | 1022.1 |
| 20260831172213 | 78 | 253 | 0.0 | 0.0 | 0.00 | 0.00 | 0.00 | 78 | 1022.2 |
| 20260831171708 | 77 | 282 | 1.0 | 1.0 | 0.00 | 0.00 | 0.00 | 79 | 1022.0 |
| 20260831171206 | 77 | 256 | 0.0 | 0.0 | 0.00 | 0.00 | 0.00 | 78 | 1022.0 |
| 20260831170702 | 77 | 236 | 0.0 | 1.0 | 0.00 | 0.00 | 0.00 | 78 | 1022.1 |
| 20260831170158 | 77 | 337 | 1.0 | 2.0 | 0.00 | 0.00 | 0.00 | 78 | 1022.1 |
| 20260831165654 | 78 | 305 | 4.0 | 5.0 | 0.00 | 0.00 | 0.00 | 79 | 1022.0 |
| 20260831165150 | 78 | 121 | 1.0 | 1.0 | 0.00 | 0.00 | 0.00 | 77 | 1022.1 |
| 20260831164646 | 78 | 142 | 0.0 | 0.0 | 0.00 | 0.00 | 0.00 | 77 | 1021.9 |
| 20260831164142 | 78 | 243 | 1.0 | 2.0 | 0.00 | 0.00 | 0.00 | 78 | 1021.7 |
| 20260831163637 | 78 | 113 | 1.0 | 1.0 | 0.00 | 0.00 | 0.00 | 79 | 1022.2 |
| 20260831163133 | 77 | 103 | 2.0 | 2.0 | 0.00 | 0.00 | 0.00 | 80 | 1022.1 |
| 20260831162632 | 77 | 120 | 1.0 | 1.0 | 0.00 | 0.00 | 0.00 | 80 | 1022.0 |
| 20260831162129 | 78 | 86 | 2.0 | 2.0 | 0.00 | 0.00 | 0.00 | 79 | 1022.1 |
| 20260831161626 | 78 | 146 | 0.0 | 1.0 | 0.00 | 0.00 | 0.00 | 80 | 1022.3 |
| 20260831161122 | 77 | 147 | 1.0 | 1.0 | 0.00 | 0.00 | 0.00 | 82 | 1022.3 |
| 20260831160621 | 76 | 203 | 1.0 | 1.0 | 0.00 | 0.00 | 0.00 | 83 | 1022.1 |
| 20260831160116 | 77 | 200 | 2.0 | 2.0 | 0.00 | 0.00 | 0.00 | 81 | 1022.0 |
| 20260831155611 | 76 | 205 | 1.0 | 2.0 | 0.00 | 0.00 | 0.00 | 83 | 1022.2 |
| 20260831155106 | 75 | 153 | 0.0 | 0.0 | 0.00 | 0.00 | 0.00 | 84 | 1022.3 |
| 20260831154602 | 75 | 140 | 1.0 | 1.0 | 0.00 | 0.00 | 0.00 | 83 | 1022.2 |
| 20260831154102 | 76 | 102 | 1.0 | 1.0 | 0.00 | 0.00 | 0.00 | 83 | 1022.2 |
| 20260831153601 | 75 | 137 | 0.0 | 0.0 | 0.00 | 0.00 | 0.00 | 85 | 1022.2 |
| 20260831153058 | 75 | 256 | 1.0 | 1.0 | 0.00 | 0.00 | 0.00 | 86 | 1022.4 |
| 20260831152553 | 74 | 274 | 2.0 | 3.0 | 0.00 | 0.00 | 0.00 | 87 | 1022.3 |
| 20260831152049 | 74 | 105 | 1.0 | 1.0 | 0.00 | 0.00 | 0.00 | 88 | 1022.2 |
| 20260831151542 | 73 | 99 | 1.0 | 1.0 | 0.00 | 0.00 | 0.00 | 89 | 1022.3 |
| 20260831151037 | 73 | 74 | 1.0 | 1.0 | 0.00 | 0.00 | 0.00 | 90 | 1022.2 |
| 20260831150532 | 73 | 111 | 1.0 | 1.0 | 0.00 | 0.00 | 0.00 | 91 | 1022.2 |
| 20260831150029 | 73 | 91 | 0.0 | 1.0 | 0.00 | 0.00 | 0.00 | 90 | 1022.4 |
| 20260831145523 | 73 | 116 | 0.0 | 0.0 | 0.00 | 0.00 | 0.00 | 91 | 1022.3 |
| 20260831145019 | 72 | 100 | 0.0 | 0.0 | 0.00 | 0.00 | 0.00 | 90 | 1022.5 |
| 20260831144514 | 72 | 86 | 1.0 | 1.0 | 0.00 | 0.00 | 0.00 | 90 | 1022.5 |
| 20260831144009 | 72 | 129 | 1.0 | 1.0 | 0.00 | 0.00 | 0.00 | 90 | 1022.6 |
| 20260831143504 | 71 | 119 | 0.0 | 1.0 | 0.00 | 0.00 | 0.00 | 91 | 1022.4 |
| 20260831142959 | 71 | 119 | 0.0 | 0.0 | 0.00 | 0.00 | 0.00 | 92 | 1022.5 |
| 20260831142455 | 71 | 123 | 2.0 | 2.0 | 0.00 | 0.00 | 0.00 | 92 | 1022.5 |
| 20260831141950 | 71 | 119 | 2.0 | 2.0 | 0.00 | 0.00 | 0.00 | 92 | 1022.6 |
| 20260831141450 | 72 | 280 | 0.0 | 1.0 | 0.00 | 0.00 | 0.00 | 94 | 1022.6 |
| 20260831140944 | 71 | 113 | 1.0 | 1.0 | 0.00 | 0.00 | 0.00 | 95 | 1022.4 |
| 20260831140439 | 72 | 119 | 0.0 | 1.0 | 0.00 | 0.00 | 0.00 | 96 | 1022.7 |
| 20260831135938 | 71 | 102 | 0.0 | 1.0 | 0.00 | 0.00 | 0.00 | 97 | 1022.7 |
| 20260831135437 | 71 | 81 | 1.0 | 1.0 | 0.00 | 0.00 | 0.00 | 97 | 1022.5 |
| 20260831134932 | 71 | 117 | 0.0 | 1.0 | 0.00 | 0.00 | 0.00 | 98 | 1022.3 |
| 20260831134428 | 71 | 86 | 1.0 | 2.0 | 0.00 | 0.00 | 0.00 | 97 | 1022.3 |
| 20260831133923 | 71 | 74 | 1.0 | 1.0 | 0.00 | 0.00 | 0.00 | 97 | 1022.5 |
| 20260831133417 | 71 | 116 | 0.0 | 0.0 | 0.00 | 0.00 | 0.00 | 97 | 1022.3 |
| 20260831132918 | 71 | 95 | 1.0 | 1.0 | 0.00 | 0.00 | 0.00 | 98 | 1022.1 |
| 20260831132413 | 70 | 158 | 0.0 | 0.0 | 0.00 | 0.00 | 0.00 | 99 | 1022.2 |
| 20260831131913 | 70 | 130 | 0.0 | 0.0 | 0.00 | 0.00 | 0.00 | 99 | 1022.2 |
| 20260831131408 | 70 | 143 | 0.0 | 0.0 | 0.00 | 0.00 | 0.00 | 99 | 1022.2 |
| 20260831130904 | 69 | 155 | 0.0 | 0.0 | 0.00 | 0.00 | 0.00 | 99 | 1022.3 |
| 20260831130359 | 69 | 225 | 1.0 | 1.0 | 0.00 | 0.00 | 0.00 | 99 | 1022.4 |
| 20260831125858 | 69 | 226 | 0.0 | 0.0 | 0.00 | 0.00 | 0.00 | 99 | 1022.4 |
| 20260831125353 | 69 | 202 | 0.0 | 0.0 | 0.00 | 0.00 | 0.00 | 99 | 1022.3 |
| 20260831124848 | 69 | 282 | 1.0 | 2.0 | 0.00 | 0.00 | 0.00 | 99 | 1022.2 |
| 20260831124344 | 69 | 153 | 0.0 | 0.0 | 0.00 | 0.00 | 0.00 | 99 | 1022.1 |
| 20260831123839 | 68 | 230 | 0.0 | 0.0 | 0.00 | 0.00 | 0.00 | 99 | 1022.4 |
| 20260831123338 | 69 | 137 | 0.0 | 0.0 | 0.00 | 0.00 | 0.00 | 99 | 1022.3 |
| 20260831122833 | 68 | 133 | 0.0 | 0.0 | 0.00 | 0.00 | 0.00 | 99 | 1022.2 |
| 20260831122328 | 68 | 147 | 0.0 | 0.0 | 0.00 | 0.00 | 0.00 | 99 | 1022.5 |
| 20260831121828 | 68 | 134 | 0.0 | 0.0 | 0.00 | 0.00 | 0.00 | 99 | 1022.2 |
| 20260831121325 | 68 | 174 | 0.0 | 0.0 | 0.00 | 0.00 | 0.00 | 99 | 1022.6 |
| 20260831120820 | 68 | 214 | 0.0 | 1.0 | 0.00 | 0.00 | 0.00 | 99 | 1022.3 |
| 20260831120314 | 68 | 150 | 0.0 | 0.0 | 0.00 | 0.00 | 0.00 | 99 | 1022.1 |
| 20260831115809 | 68 | 150 | 0.0 | 0.0 | 0.00 | 0.00 | 0.00 | 99 | 1022.2 |
| 20260831115306 | 68 | 200 | 0.0 | 0.0 | 0.00 | 0.00 | 0.00 | 99 | 1022.1 |